Theta_e
294 294 295 297 297 296 296 296 297 297 296 295 295 295 295 295 295 296 296 296 296 296 296 296 296 297 297 297 296 296 296 296 296 297 297 297 296 296 296 296 296 296 296 296 296 297 297 296 297 297 297 297 297 298 297 297 298 298 297 297 297 297 297 297 297 297 297 297 297
294 294 295 296 295 295 295 295 296 295 295 294 294 294 294 294 295 295 296 295 295 295 295 296 297 297 297 297 296 295 295 296 296 296 296 296 295 295 295 295 295 295 295 296 296 296 296 296 296 296 296 297 297 297 297 297 297 297 297 297 297 297 297 296 296 296 297 296 296
294 294 294 294 294 294 294 294 294 294 294 294 294 294 294 294 294 295 295 295 295 295 295 296 296 297 297 296 296 295 295 295 296 296 296 296 295 295 295 295 295 295 295 295 295 295 295 295 296 296 296 297 297 297 297 297 297 296 296 296 296 296 296 295 296 296 296 296 296
294 294 294 294 293 293 293 293 293 294 294 294 294 294 294 294 294 295 295 295 295 295 296 296 296 296 296 296 295 295 295 296 296 296 295 296 295 295 295 295 295 295 295 294 294 294 294 294 295 295 296 296 296 296 296 296 296 296 296 296 296 295 295 295 296 296 296 296 296
293 293 293 293 292 292 292 292 292 293 293 293 293 294 294 295 295 295 295 295 296 296 296 296 296 296 296 295 295 295 295 295 296 296 295 295 295 295 295 295 295 295 295 294 294 294 294 293 294 294 295 295 295 295 295 295 295 295 295 295 295 295 295 295 295 295 295 295 295
293 293 292 292 292 292 292 292 292 292 292 293 293 294 295 295 295 295 295 295 295 296 296 296 296 296 296 295 295 295 295 295 295 295 295 295 295 295 295 295 294 294 294 294 294 293 293 293 293 293 294 294 294 294 295 295 294 294 294 294 294 294 294 294 294 294 294 294 294
292 293 293 292 292 292 292 292 292 292 292 293 294 294 295 295 295 294 294 294 295 295 296 296 295 294 294 294 294 295 295 295 295 294 294 294 294 294 294 294 294 294 294 294 293 293 293 292 292 293 293 294 294 294 294 294 294 293 293 293 294 294 294 294 294 294 294 294 293
293 293 293 293 293 293 293 292 292 293 293 294 294 294 294 294 294 294 294 294 295 295 295 295 294 293 293 293 293 294 294 294 294 294 294 294 294 294 294 293 293 293 293 293 293 293 292 292 292 292 292 293 293 293 294 294 293 292 292 292 293 293 294 294 294 294 294 293 293
293 293 293 293 293 293 293 292 292 293 294 294 294 293 293 295 294 294 294 294 295 295 294 294 293 293 293 293 293 293 293 293 293 293 294 293 293 293 293 293 293 293 293 293 293 292 292 291 291 292 292 292 293 293 293 293 292 292 292 292 292 293 293 294 294 293 293 293 293
293 293 293 293 293 293 293 292 292 293 293 294 293 293 294 295 294 294 294 294 294 294 294 293 293 292 292 293 293 293 293 293 293 293 293 293 293 293 293 293 293 293 293 293 293 292 292 291 292 292 292 293 292 292 292 292 292 291 291 292 292 293 293 293 293 293 293 293 292
293 293 293 293 293 293 293 293 293 294 294 294 294 293 293 294 293 293 293 294 293 293 293 293 292 292 292 293 293 293 293 293 292 292 292 292 293 293 292 292 292 292 292 292 292 292 292 292 292 292 292 293 293 292 292 292 292 291 291 292 292 292 292 292 293 293 293 293 292
292 292 292 292 292 292 293 293 294 294 294 294 294 293 293 293 293 293 293 293 293 293 293 293 293 292 292 292 293 293 293 292 292 292 292 292 292 292 292 292 292 292 292 292 292 292 292 292 292 292 292 292 293 293 293 292 292 292 291 292 292 292 292 292 292 292 292 293 293
292 292 292 292 292 292 293 293 293 294 294 293 293 293 293 293 293 293 293 292 292 293 293 293 293 293 292 292 292 292 292 292 292 291 291 292 292 292 292 291 291 292 292 292 292 292 292 292 291 291 291 292 292 292 292 292 292 291 291 291 291 291 291 291 292 292 292 292 292
291 292 292 292 292 292 293 293 293 293 293 293 293 293 293 293 293 293 293 292 292 292 292 292 293 293 293 292 292 292 292 291 291 291 291 291 291 291 291 291 291 291 291 292 292 292 291 291 291 291 291 291 291 292 292 292 291 291 291 291 291 291 291 291 292 292 292 292 292
292 292 292 292 292 292 293 293 293 293 293 293 293 293 292 292 293 293 293 292 292 292 292 292 292 292 292 292 292 292 291 291 291 291 291 291 291 291 291 291 291 291 291 292 292 292 291 291 291 291 291 291 291 291 291 291 291 291 291 291 291 291 291 291 292 292 292 292 292
292 292 292 292 292 292 292 292 293 293 293 293 293 292 292 292 292 292 292 292 292 292 292 292 292 292 292 292 292 292 291 291 291 291 291 291 291 291 291 291 291 291 291 291 291 291 291 291 291 291 291 291 291 291 291 291 291 291 291 291 291 291 291 292 292 292 292 292 292
292 292 292 292 292 292 292 292 292 292 292 292 292 292 292 292 292 292 292 292 292 292 292 292 292 292 292 292 292 292 291 291 291 291 291 291 291 291 291 291 291 291 291 291 291 291 291 291 291 291 291 291 291 291 291 291 291 291 291 292 292 292 292 292 293 293 293 293 293
292 292 292 292 292 292 291 292 292 292 292 291 291 292 292 292 291 292 292 292 292 291 291 291 291 291 291 291 291 291 291 291 291 291 291 291 291 291 291 291 291 291 291 291 290 290 290 291 291 291 291 291 291 291 291 291 291 291 292 292 292 293 293 293 293 293 293 293 293
291 291 291 292 291 291 291 291 291 291 291 291 291 291 291 291 291 291 291 291 292 291 291 291 291 291 291 291 291 291 291 291 291 291 291 291 291 291 291 291 291 291 291 290 290 290 290 290 290 290 290 291 291 291 291 291 291 292 292 293 293 293 293 294 294 294 294 294 294
291 291 291 291 291 291 291 291 291 291 291 291 291 291 291 291 291 291 291 291 291 291 291 290 290 290 291 291 291 291 291 291 291 291 291 291 291 290 290 290 291 291 291 290 290 290 290 290 290 290 290 290 290 291 291 292 292 292 293 293 293 294 294 294 295 295 295 295 295
291 291 291 291 291 290 290 291 291 290 290 290 290 290 291 291 291 291 291 291 291 291 290 290 290 290 290 290 290 290 290 291 291 291 291 291 291 291 291 291 290 290 290 290 290 290 290 290 290 290 290 290 291 291 292 292 293 293 293 294 294 294 295 295 295 295 295 295 295
291 291 290 290 290 290 290 291 290 290 290 290 290 290 291 291 291 291 291 290 290 290 290 290 290 290 290 290 290 290 290 291 291 291 291 290 290 291 291 290 290 290 289 289 289 289 289 290 290 290 291 291 291 292 292 293 293 294 294 294 295 295 296 296 296 296 296 296 296
291 291 290 290 290 290 290 290 290 290 290 290 290 291 291 290 291 291 290 290 290 290 290 290 291 290 290 290 290 290 290 290 290 291 291 290 290 290 290 290 289 289 289 289 289 290 290 291 291 292 292 293 293 294 294 294 295 295 295 296 296 297 297 297 298 297 297 297 297
290 290 290 290 290 289 289 289 290 290 290 291 291 291 291 290 290 290 290 290 290 290 290 290 290 290 290 290 290 290 290 290 290 290 290 290 290 290 290 289 289 289 289 290 290 291 292 293 294 294 295 296 296 296 296 296 297 297 297 298 297 298 298 298 298 298 298 298 298
289 289 289 289 289 289 289 290 290 290 290 290 290 290 290 290 290 290 290 290 290 290 290 290 290 290 290 291 291 291 290 290 290 289 289 289 289 289 289 289 289 289 290 290 293 294 296 296 296 296 297 297 297 298 298 298 298 298 298 298 298 298 297 298 298 299 299 299 300
289 289 289 289 289 289 290 290 290 290 290 290 290 290 290 290 290 290 290 289 290 290 290 290 290 290 291 291 291 291 290 290 289 289 289 288 288 288 289 289 289 289 290 292 294 296 297 298 299 298 298 298 298 298 298 299 299 299 299 298 298 297 297 298 298 298 299 300 300
288 289 289 289 289 289 290 290 290 290 290 290 290 290 290 290 290 289 289 289 289 290 290 290 290 291 291 291 290 290 289 289 289 289 289 288 288 288 288 289 289 290 291 293 295 297 298 299 300 300 299 298 299 298 298 299 299 299 299 298 298 298 298 298 297 298 298 299 299
288 288 289 289 289 289 290 290 290 290 290 290 290 290 289 289 289 289 289 289 289 290 289 290 290 291 291 290 290 289 289 289 289 289 289 288 288 288 289 289 289 290 292 294 296 297 298 300 300 301 301 300 299 299 299 299 298 298 297 297 298 298 298 298 298 298 298 298 299
288 288 288 289 289 290 290 290 290 290 290 290 289 289 289 289 289 289 289 289 289 289 289 290 290 290 290 289 289 289 289 289 288 289 288 288 288 289 289 289 290 291 293 295 296 297 299 300 301 301 302 301 300 300 299 298 297 297 297 298 298 298 298 298 298 298 298 298 298
288 288 288 288 289 289 290 290 290 289 289 289 289 289 289 288 289 289 289 289 289 289 289 290 290 290 289 289 289 289 288 288 289 288 288 288 288 289 289 290 290 291 292 295 296 298 299 300 301 301 302 302 301 300 299 299 298 298 298 298 298 298 298 298 298 298 298 298 297
288 288 288 288 289 289 289 289 289 289 289 289 288 288 288 288 288 288 289 289 289 289 290 290 289 289 289 289 288 288 288 288 288 288 289 288 289 289 289 289 290 291 292 295 297 298 299 300 301 301 301 302 301 300 300 300 299 299 298 298 298 298 298 298 298 298 298 297 297
288 288 288 289 289 289 289 289 289 289 289 288 288 288 288 288 288 289 289 289 289 289 289 289 289 288 288 288 288 288 288 288 288 289 289 289 289 289 289 289 290 291 293 295 297 298 299 300 301 301 301 301 300 300 300 300 299 299 298 298 298 298 298 298 298 298 297 297 297
288 288 288 288 289 289 289 289 289 288 288 288 288 288 288 288 288 288 289 289 289 289 289 289 288 288 288 287 287 287 287 288 288 289 289 289 289 289 289 290 290 291 294 296 297 299 299 300 300 301 301 301 300 300 299 299 299 298 298 298 298 298 298 298 298 298 298 298 298
288 288 288 288 289 289 289 289 288 288 288 288 288 288 288 288 288 288 288 289 289 289 289 289 288 288 287 287 287 287 287 288 288 289 289 289 289 289 289 290 290 292 294 296 298 299 299 300 300 301 301 300 299 299 299 299 298 298 298 298 298 298 298 298 298 298 298 298 298
288 288 288 288 288 288 288 288 288 288 288 287 288 288 288 288 288 288 288 289 290 290 289 289 288 288 288 288 287 287 288 288 288 288 289 289 289 289 289 290 290 292 295 297 298 299 299 300 300 300 300 300 299 299 298 298 297 297 297 297 297 297 297 298 298 298 298 298 298
288 288 288 288 288 288 288 288 288 288 287 287 287 288 288 288 288 288 289 290 289 289 288 288 288 288 287 287 287 288 288 288 288 288 289 289 289 289 289 290 290 293 295 297 298 298 299 299 300 300 300 299 298 298 298 298 298 298 297 297 297 297 297 297 298 298 298 298 298
288 288 287 288 288 288 288 288 287 287 287 287 287 288 288 288 288 288 289 290 289 288 288 288 287 287 287 287 287 288 288 288 288 288 289 289 289 289 289 290 291 293 295 297 298 298 299 299 299 300 299 298 298 298 298 298 297 297 297 297 297 297 297 298 298 298 298 297 297
288 287 287 287 287 287 288 287 287 287 287 287 288 288 288 288 288 288 289 290 289 288 287 287 287 287 287 287 288 288 288 289 289 289 289 289 289 290 290 291 292 293 295 296 297 298 298 299 299 299 299 297 297 297 297 297 296 296 296 296 296 297 297 297 297 297 297 296 297
288 287 287 287 287 287 287 287 287 287 287 287 287 288 288 288 288 289 289 289 288 287 287 286 287 287 287 288 288 288 288 289 289 289 289 289 290 291 292 292 292 293 294 296 297 297 298 298 299 299 299 298 297 297 297 296 296 295 295 295 296 296 297 297 296 296 296 296 297
287 287 287 287 287 287 287 287 287 287 287 287 287 287 288 288 289 289 289 289 288 287 287 287 287 287 288 288 288 288 288 288 289 289 290 290 291 292 293 292 292 293 294 295 296 297 298 298 299 299 299 298 297 297 296 296 295 295 295 295 296 296 296 296 296 295 295 295 296
287 287 287 287 287 287 287 287 287 287 287 287 287 287 288 289 289 289 288 288 287 287 287 287 287 287 288 288 288 288 288 288 289 289 290 291 292 293 293 292 292 292 293 294 296 297 297 298 298 299 299 298 298 297 296 296 295 295 294 295 295 295 295 295 295 295 294 294 294
Wind_Speed
3 3 2 2 2 1 1 0 1 1 1 1 2 2 2 2 2 2 3 3 3 3 3 3 3 4 5 6 6 6 6 6 6 6 6 6 6 5 5 5 4 4 4 3 3 2 2 1 1 1 1 2 3 3 3 3 4 4 5 5 6 6 7 8 8 9 10 10 9
4 3 3 3 2 2 1 1 1 1 1 1 1 2 2 2 2 2 3 3 3 3 3 3 3 4 5 6 5 5 5 6 6 6 5 5 5 5 4 4 4 4 3 3 3 2 2 1 1 1 2 2 3 3 3 4 4 5 6 7 6 6 6 7 8 9 10 10 9
4 3 3 3 3 3 2 2 2 2 2 2 2 2 2 2 2 2 2 2 2 2 2 2 3 4 5 5 4 4 4 4 5 5 5 4 4 4 4 4 4 3 3 3 3 2 2 2 2 2 2 2 3 4 4 4 4 5 6 7 6 5 5 6 7 8 8 8 9
4 4 4 4 4 4 3 2 3 3 3 2 2 2 1 1 1 2 2 2 2 2 2 3 3 3 4 4 4 4 4 4 4 4 4 4 4 4 4 4 4 4 3 3 3 3 2 2 2 2 3 4 4 4 4 4 5 5 5 6 6 6 6 7 7 7 7 8 9
5 4 4 4 4 3 3 2 3 3 3 2 2 2 2 1 1 2 2 2 2 2 3 3 3 3 3 4 4 4 4 4 4 4 4 4 4 4 4 4 4 4 4 3 3 3 3 3 2 2 3 4 4 4 5 6 6 6 6 5 5 6 7 7 7 7 7 7 8
4 4 3 3 3 3 2 2 3 2 2 2 2 3 3 2 2 2 3 3 3 3 3 4 3 3 4 4 4 4 4 4 3 3 4 4 4 5 5 5 5 4 4 4 4 4 4 3 3 3 3 3 4 5 6 6 6 6 6 6 6 6 6 7 7 7 7 8 9
3 3 4 4 3 3 3 3 2 2 2 2 3 4 4 3 3 3 3 3 3 3 4 3 4 4 4 5 4 4 4 4 4 4 4 4 4 5 5 5 5 5 5 5 5 4 4 3 3 4 4 4 4 5 6 6 6 6 7 7 6 6 6 8 7 7 8 10 11
3 4 4 4 4 4 3 3 2 2 2 2 3 4 4 4 4 4 4 4 4 4 4 3 4 5 5 5 5 5 5 5 5 5 5 5 5 5 5 5 5 5 5 5 5 5 4 4 3 4 4 4 4 5 6 7 7 7 8 8 7 7 6 7 7 7 8 10 11
4 4 4 4 4 4 3 3 2 2 3 3 3 3 4 4 4 5 5 4 5 5 4 4 5 6 6 6 6 5 5 5 6 6 5 5 6 6 6 5 6 6 6 5 5 5 5 4 4 4 4 4 5 6 7 8 8 9 9 9 8 8 7 7 8 9 9 10 11
5 4 4 4 4 3 3 2 2 2 3 3 3 4 4 4 5 4 4 4 5 5 5 5 6 6 6 7 6 6 6 5 6 6 6 6 6 7 6 6 6 7 7 6 6 6 5 4 5 5 5 5 6 7 8 8 9 10 9 8 8 10 10 10 10 10 10 10 12
4 4 4 3 3 3 2 2 2 2 3 3 4 4 5 5 5 5 5 5 5 6 6 6 6 6 7 6 6 6 6 6 6 6 7 7 7 7 7 7 7 7 7 7 6 5 5 5 6 7 7 7 7 8 9 9 9 10 10 10 10 12 13 13 12 11 10 11 12
3 3 3 3 2 2 2 3 3 3 4 4 5 5 5 5 5 5 6 6 6 6 6 6 6 7 6 6 6 7 7 7 7 7 7 8 8 8 8 8 8 8 8 8 7 6 5 6 7 8 9 9 8 8 8 10 10 11 12 12 12 13 13 13 13 11 10 11 12
2 2 2 2 2 2 3 3 3 3 4 5 5 5 5 5 6 6 6 6 7 6 6 6 6 6 6 6 6 7 7 7 7 7 8 8 8 8 8 8 8 9 8 8 7 6 7 7 9 10 10 10 9 9 10 11 11 12 12 13 13 13 14 14 13 12 12 12 12
1 2 2 2 3 3 3 4 3 4 4 5 5 5 5 5 6 6 6 6 6 6 6 6 6 6 6 7 7 7 7 8 8 8 8 9 9 9 9 9 9 9 9 8 8 8 8 9 9 10 11 11 11 11 11 11 11 12 13 13 14 14 14 14 13 13 13 13 13
1 2 2 3 3 3 4 4 3 4 4 5 5 5 5 5 5 6 6 6 6 6 6 6 6 6 7 8 8 8 8 8 8 9 9 9 9 9 9 9 9 9 9 9 9 9 9 10 10 10 11 11 12 12 12 12 12 12 12 13 13 14 14 14 13 13 12 13 13
2 2 3 3 3 4 4 4 3 3 4 5 5 5 5 5 5 5 6 6 6 6 6 7 7 7 7 8 8 8 8 8 8 9 9 9 9 10 10 10 10 10 10 10 10 10 10 10 10 10 11 12 12 12 13 13 13 13 13 13 13 13 13 14 13 13 13 13 13
3 3 3 3 4 4 4 4 4 4 4 5 5 5 5 5 5 5 6 7 6 6 7 8 7 7 7 8 8 8 8 8 8 8 9 9 10 10 10 11 11 11 11 11 11 11 11 11 11 11 11 12 12 12 13 13 13 13 13 13 13 13 13 14 13 13 13 13 14
3 3 3 3 4 4 5 5 5 5 5 6 6 5 5 5 6 6 6 7 7 7 8 9 8 8 8 8 8 8 7 8 9 9 9 10 10 10 11 11 11 11 11 11 12 12 12 12 12 12 11 11 12 12 12 13 13 13 13 13 13 14 14 14 14 13 13 13 14
3 3 3 3 4 4 5 5 5 5 6 6 6 6 6 6 6 6 7 7 7 8 9 9 9 8 8 9 9 8 8 8 9 10 10 10 10 11 11 11 11 12 12 12 12 12 13 13 13 12 12 12 12 12 12 13 13 13 13 14 14 14 14 14 14 14 13 14 14
2 3 3 4 4 5 5 5 6 6 6 6 6 6 7 7 7 7 7 8 8 8 8 9 9 9 9 9 9 9 9 8 9 10 10 10 11 11 11 12 12 12 12 12 12 13 13 13 13 13 13 13 13 13 13 13 13 13 14 13 14 14 15 15 14 14 14 14 14
2 3 3 4 4 5 5 5 6 6 6 6 6 7 7 7 7 7 8 8 8 9 9 9 9 9 10 10 10 10 10 8 9 10 10 11 11 11 12 12 12 12 12 12 12 13 13 13 13 13 12 13 13 13 13 13 13 14 14 13 14 14 15 15 15 15 15 15 15
2 3 3 4 5 5 5 6 6 6 6 6 6 7 7 7 7 8 8 8 8 8 9 9 9 10 10 10 10 10 10 9 9 10 10 10 11 11 12 12 12 12 13 13 12 12 12 12 12 12 12 12 13 13 13 13 13 14 14 14 15 15 15 15 15 15 15 14 14
3 3 4 4 5 5 6 6 6 6 6 6 7 7 7 7 8 8 8 8 8 8 9 9 9 9 10 10 10 10 10 10 11 11 11 11 11 12 12 11 12 12 12 11 11 11 11 11 11 12 12 12 13 13 13 14 13 14 14 15 16 16 16 15 14 14 13 13 12
3 4 4 4 5 5 5 6 6 6 6 7 7 7 8 8 8 8 8 8 8 9 9 8 9 9 10 10 10 10 10 11 12 12 13 12 12 12 12 11 11 11 11 10 10 11 11 10 10 11 11 12 12 13 13 14 14 14 15 16 16 16 15 14 13 12 12 11 11
4 4 5 4 5 5 5 6 6 6 7 7 7 7 8 8 8 8 8 9 9 9 9 9 10 9 9 9 10 10 10 11 12 13 13 13 13 12 12 10 10 9 9 9 12 15 15 14 13 12 11 11 12 12 13 14 14 14 14 15 15 14 12 11 10 10 10 10 10
4 4 5 5 5 6 6 6 6 7 7 7 7 8 8 8 8 8 9 9 9 9 10 10 9 9 9 9 10 10 10 10 11 12 13 13 13 13 12 10 9 8 9 11 15 17 18 19 18 16 14 12 12 12 12 12 13 13 13 13 12 11 10 9 9 9 9 9 10
4 5 5 5 5 6 6 6 7 7 7 7 8 8 8 8 8 8 9 9 9 10 9 9 9 9 9 9 10 11 11 11 11 12 12 12 13 13 12 11 9 8 9 13 17 19 20 20 20 19 17 14 12 11 10 10 11 11 11 11 10 9 9 9 10 11 11 11 11
4 5 5 6 6 6 7 7 7 7 8 8 8 8 8 8 8 9 9 9 9 9 9 8 8 8 8 8 10 11 12 12 11 11 11 12 12 13 12 11 10 10 12 16 19 20 20 20 20 20 19 17 12 10 10 10 9 9 8 8 8 9 10 10 10 11 11 12 12
4 5 5 6 6 7 7 7 7 8 8 8 8 8 8 8 9 9 9 9 10 10 9 8 8 7 8 9 10 11 12 12 11 11 11 12 12 12 12 12 12 13 15 19 19 20 20 20 20 21 21 19 13 9 7 8 7 7 7 7 7 9 10 11 11 11 11 12 12
4 4 5 6 6 7 7 7 7 8 8 7 8 8 8 8 9 9 9 10 10 10 9 8 8 9 10 10 11 11 11 11 11 11 11 12 13 13 13 13 12 13 15 18 19 19 19 20 20 21 21 21 16 11 7 7 7 7 7 7 9 10 12 12 13 13 12 12 12
4 4 5 6 6 7 7 7 7 8 8 7 8 8 8 8 9 9 9 10 10 10 10 10 10 11 11 11 11 11 11 11 11 11 11 12 13 13 13 14 14 14 15 18 19 19 19 20 20 21 21 22 17 12 8 8 8 8 8 9 11 12 12 12 12 13 13 14 13
4 4 5 6 7 7 7 7 7 7 8 8 8 8 8 8 9 9 9 9 10 10 11 11 11 12 12 12 12 12 12 12 12 11 11 12 13 13 14 14 14 14 15 17 19 19 20 20 21 21 22 22 17 13 10 10 10 10 10 11 12 13 13 11 11 13 14 14 14
4 4 5 6 7 7 7 7 7 7 8 8 8 8 8 9 9 9 9 9 9 10 10 11 12 12 12 13 13 13 13 12 12 12 12 13 13 13 14 13 12 13 15 18 19 20 20 20 21 21 22 22 17 13 11 11 10 10 10 11 12 13 13 14 13 13 14 14 13
4 5 5 6 7 7 7 7 7 7 7 8 8 8 8 8 9 10 10 10 10 10 10 10 11 11 11 11 12 12 12 12 12 12 13 13 13 13 13 12 10 12 15 18 19 20 20 20 21 21 22 21 15 12 11 12 10 10 11 11 12 13 13 13 14 14 14 14 12
4 5 6 6 7 7 7 7 7 7 7 8 8 8 8 8 9 9 10 10 10 10 10 10 10 10 10 11 11 11 12 12 12 12 13 13 13 13 14 13 12 14 17 19 19 20 20 21 21 22 21 19 13 11 11 12 11 11 12 13 13 13 13 14 13 13 13 13 12
4 5 6 7 7 7 7 7 7 7 7 8 8 8 9 9 9 9 9 10 11 11 11 11 11 11 11 11 11 11 11 12 12 12 13 12 13 13 14 14 14 15 17 19 19 20 20 21 21 22 20 16 11 10 10 10 10 11 12 12 12 13 13 13 13 12 12 11 10
4 5 6 7 7 7 7 7 7 7 7 8 8 9 9 9 9 9 9 10 10 11 11 11 11 12 12 12 11 11 11 11 12 12 13 13 13 13 13 14 14 15 16 18 19 20 21 21 22 21 19 14 10 9 10 9 9 9 10 11 11 12 12 11 11 11 10 10 10
5 5 6 6 7 7 7 7 7 7 8 8 8 8 9 9 9 9 9 10 10 11 11 12 12 12 12 12 12 12 12 12 12 12 12 12 12 13 13 14 14 14 15 17 19 20 21 21 22 21 19 14 11 10 9 8 7 7 7 8 9 10 10 9 8 8 8 9 11
5 5 6 6 7 7 7 7 7 7 8 8 9 9 9 9 8 9 9 9 9 10 11 11 12 12 12 12 12 12 12 12 12 12 12 12 12 13 13 14 13 14 15 17 19 20 21 21 22 22 20 15 12 9 8 6 6 7 7 7 8 9 9 8 7 6 7 9 12
5 5 6 6 6 6 7 7 7 7 7 8 8 9 9 9 9 9 9 9 9 9 10 11 12 12 12 12 12 12 12 12 12 11 12 12 13 14 14 13 13 14 15 17 19 20 21 21 21 21 20 15 11 8 7 6 6 7 7 7 7 7 7 7 7 6 7 8 10
5 5 6 6 6 6 6 7 7 7 7 7 8 8 9 9 9 9 9 9 9 9 9 9 11 12 12 12 11 11 11 12 12 12 12 13 13 13 13 12 13 13 14 15 18 20 21 21 21 21 20 15 10 7 6 6 6 7 8 8 8 7 6 7 7 7 7 8 9
Wind_Direction
53 49 45 45 45 47 44 27 16 12 356 329 329 329 329 327 331 338 344 346 345 342 339 337 338 338 340 344 347 349 350 354 359 3 7 11 8 5 2 3 2 1 359 359 355 350 344 329 312 294 276 269 266 262 258 254 252 249 245 242 247 250 250 250 252 252 252 250 250
53 48 42 38 38 38 37 36 25 17 7 345 337 332 330 331 336 341 347 350 347 339 334 332 337 341 344 347 352 355 356 357 360 3 8 11 10 6 3 3 3 2 1 1 355 350 341 326 300 282 269 263 264 261 258 253 253 254 253 249 251 253 255 255 256 257 257 257 255
45 41 37 33 29 26 22 19 14 8 4 359 350 341 334 334 339 343 343 340 335 332 332 334 340 344 346 348 352 355 356 354 356 359 2 4 5 4 1 358 357 357 356 355 347 338 326 313 294 282 275 269 267 268 267 261 256 256 258 255 255 255 256 258 260 259 259 258 256
37 34 30 29 25 22 17 9 2 2 2 1 353 348 346 347 344 338 331 325 330 338 341 338 335 338 342 343 345 347 348 348 352 354 355 355 356 355 353 349 348 348 346 341 332 321 310 299 287 281 278 276 274 273 272 271 263 261 261 261 260 259 259 261 263 263 262 262 260
32 29 26 23 19 16 10 5 359 358 358 356 357 4 11 11 358 346 338 339 346 344 335 325 321 323 327 331 334 337 340 342 347 348 346 344 343 343 341 341 340 337 333 328 322 315 308 298 288 280 278 279 276 274 274 277 274 271 268 267 266 265 266 269 270 271 270 269 266
27 25 23 23 17 15 12 11 4 359 356 356 8 16 19 16 7 358 351 342 333 325 319 317 318 322 325 327 328 332 335 336 337 336 334 332 332 331 331 331 329 327 323 321 317 313 308 302 295 287 282 279 276 275 276 277 277 276 275 273 270 269 271 272 274 273 272 270 269
28 27 27 26 24 24 24 19 14 6 4 10 19 18 12 1 354 348 339 326 322 321 322 325 329 329 328 327 327 328 329 328 326 325 324 322 322 322 321 321 320 318 315 313 312 309 307 303 297 292 289 287 286 284 282 278 277 277 278 277 276 274 273 271 272 271 270 270 269
40 38 35 33 32 30 27 21 18 17 18 25 20 10 358 345 341 336 332 328 329 328 327 326 327 324 322 320 320 322 322 322 321 320 319 316 315 313 312 312 311 310 308 307 306 305 304 300 293 291 291 292 289 289 288 285 282 280 280 280 280 279 276 274 273 272 271 272 271
46 41 38 36 35 31 25 19 17 18 18 18 9 355 343 336 336 336 335 334 330 326 323 322 322 320 318 316 316 317 318 319 317 316 314 312 310 309 308 308 309 308 306 305 303 301 299 294 287 286 287 287 288 290 292 291 288 285 283 282 282 280 277 275 274 273 273 273 272
42 38 34 35 30 24 18 13 15 14 11 5 358 348 341 340 342 340 336 331 325 323 322 323 323 321 319 317 317 318 318 317 314 312 311 308 307 307 307 307 307 306 306 306 304 301 297 290 286 286 286 286 288 290 290 290 288 287 286 284 284 285 283 281 278 276 275 273 272
38 32 28 27 17 11 7 12 13 11 6 359 354 349 346 346 344 339 333 328 324 323 324 326 325 322 320 319 319 319 318 317 314 311 309 306 306 305 304 303 303 302 302 303 303 301 297 291 290 290 291 291 290 290 290 290 289 288 287 285 286 286 285 283 281 278 276 273 272
31 23 18 14 2 358 2 12 11 7 2 356 353 349 346 345 340 336 332 330 327 326 326 327 324 321 319 318 319 319 318 316 314 311 308 306 305 304 303 301 300 299 299 300 300 298 295 293 294 294 295 295 293 292 292 294 292 290 289 287 286 285 283 282 281 279 277 275 275
19 14 11 6 359 1 6 11 7 1 356 351 349 346 343 339 336 335 333 330 328 327 326 326 323 321 319 319 319 318 317 316 314 311 308 306 305 304 303 301 300 300 299 299 298 296 295 294 294 294 294 295 293 293 293 294 293 291 289 288 287 285 283 282 282 280 279 277 276
9 10 10 4 3 6 9 8 2 355 350 345 345 342 338 333 333 333 332 330 328 326 324 323 322 322 322 321 319 317 316 314 312 310 307 305 305 304 303 302 301 300 299 299 298 296 295 293 293 293 293 293 292 292 292 292 290 288 287 286 285 284 283 283 282 281 280 278 275
16 15 9 3 6 8 8 3 356 348 343 340 339 336 333 330 331 331 330 328 326 324 323 324 323 323 322 320 318 317 315 313 311 309 307 306 305 304 303 302 301 300 299 299 299 297 294 292 292 291 291 291 291 291 290 290 288 286 284 283 282 282 281 281 281 280 279 277 276
20 13 7 3 4 3 1 356 347 340 336 334 333 331 330 328 328 328 328 328 327 326 325 324 323 322 321 320 319 318 316 314 311 309 308 307 306 305 304 303 302 301 300 300 299 297 294 292 291 290 289 289 289 289 288 288 286 283 281 279 279 278 278 278 278 277 276 275 274
15 8 2 359 358 355 350 344 337 332 330 328 328 328 327 327 327 328 328 328 327 325 324 323 322 321 320 320 320 319 317 314 312 310 308 307 306 305 304 303 302 301 300 299 298 296 295 293 292 290 289 287 286 286 285 284 283 281 279 277 276 275 275 274 274 274 273 273 272
6 358 352 351 348 343 338 332 328 325 324 324 324 325 325 326 326 325 324 324 324 323 322 321 320 318 318 318 317 316 314 313 311 309 307 306 305 304 303 301 301 300 299 298 296 295 294 294 293 291 289 286 285 283 282 281 279 277 276 275 274 273 272 272 271 271 270 270 270
352 345 342 341 336 331 326 324 322 321 321 321 321 322 322 322 322 322 321 322 322 322 321 319 317 316 315 315 314 313 311 309 307 306 305 304 303 302 301 300 300 299 298 297 295 294 293 293 292 291 288 286 284 282 280 278 277 275 275 274 273 272 271 270 270 269 268 268 268
337 332 328 326 323 320 318 317 317 317 318 318 319 319 319 320 320 320 320 320 321 320 318 316 315 315 314 314 312 311 309 306 305 304 303 303 302 302 301 301 301 300 298 297 295 294 293 292 291 289 287 285 283 281 279 277 275 274 274 273 273 272 271 270 269 268 268 267 267
318 314 312 312 311 311 310 311 313 314 315 315 316 317 317 318 319 318 318 317 317 316 315 313 313 312 312 312 311 309 307 305 304 303 302 302 302 302 302 302 302 301 299 298 296 294 293 291 289 287 285 283 280 278 277 276 275 275 274 273 273 272 271 270 270 269 268 267 266
303 302 303 304 304 305 307 309 312 313 313 313 314 315 316 317 316 316 315 315 314 314 313 312 311 309 309 308 307 306 305 304 303 302 302 303 303 303 303 304 302 300 299 297 295 294 292 290 287 283 280 278 276 274 273 273 274 274 274 273 273 273 273 272 271 269 268 267 265
298 301 301 301 302 305 308 312 313 313 314 315 316 317 317 316 315 315 314 314 313 313 312 310 308 307 305 303 302 301 302 302 303 303 304 305 305 305 305 304 302 300 298 296 295 293 292 289 286 282 278 275 274 273 273 272 273 274 275 276 278 278 279 279 279 277 274 271 268
300 303 304 303 306 308 310 313 315 316 317 318 318 317 316 315 315 315 314 313 312 311 310 308 307 305 303 300 299 299 301 303 305 306 307 308 308 308 307 306 303 300 298 295 294 293 293 291 289 287 284 283 282 281 280 280 280 280 281 282 283 285 286 288 288 286 283 279 275
302 303 304 305 309 311 313 317 319 319 319 318 317 316 315 315 315 315 314 313 311 310 308 307 305 304 302 302 303 304 305 306 308 309 310 310 310 310 309 307 304 302 299 295 295 296 297 298 297 295 293 291 289 287 286 286 285 284 284 283 285 287 289 290 289 287 285 284 283
304 305 305 307 311 314 317 320 320 319 317 316 316 316 315 315 315 314 313 311 310 309 308 307 306 305 306 308 311 312 312 311 311 311 311 311 311 311 310 308 305 302 299 297 300 301 302 302 301 299 296 291 288 286 286 286 286 285 284 284 286 287 289 290 293 294 294 293 292
304 305 307 311 314 317 318 319 319 318 317 317 317 316 316 315 314 313 311 310 310 309 309 307 307 308 311 313 315 316 315 315 314 312 311 310 310 310 310 307 305 302 299 300 303 304 305 305 303 301 298 293 290 290 292 292 291 291 290 290 291 291 292 295 301 303 302 300 297
302 305 309 314 317 318 319 320 320 319 318 318 317 315 314 313 312 310 310 310 311 312 312 312 313 314 316 317 317 317 316 315 314 313 311 310 309 309 308 307 305 303 302 303 306 307 307 306 304 302 301 298 297 297 299 298 297 295 294 293 293 296 299 303 305 304 302 299 298
298 304 310 316 317 318 319 321 320 318 317 316 314 313 312 311 311 310 311 312 314 316 316 317 319 320 320 318 317 317 316 315 314 313 312 311 310 309 308 307 306 304 304 306 307 308 307 305 304 303 303 303 304 305 304 302 299 297 295 294 297 301 305 307 304 302 300 299 299
298 305 311 314 315 316 317 318 316 315 314 313 313 312 312 311 312 313 314 315 316 316 317 318 318 318 317 317 316 316 316 315 314 313 313 312 311 310 310 310 309 307 306 307 308 308 307 306 305 305 305 307 308 306 303 301 300 299 298 299 301 303 303 303 301 300 299 299 298
300 305 310 312 313 313 313 313 313 313 312 312 312 312 312 312 313 314 315 315 314 314 315 316 316 315 315 316 316 315 315 314 314 313 313 312 312 312 312 310 308 306 305 307 308 308 307 306 306 306 307 310 311 311 307 306 306 305 304 303 303 302 301 300 300 299 298 297 296
299 305 309 311 310 310 310 311 311 311 311 310 310 311 311 312 312 313 313 313 313 314 316 317 318 318 319 319 318 317 315 314 314 313 314 314 314 312 311 309 307 306 306 308 309 309 308 308 308 309 311 312 313 313 312 311 310 308 305 303 301 300 299 299 298 298 297 296 293
300 306 308 308 308 308 309 310 310 310 310 310 310 310 311 311 312 314 315 315 316 317 318 320 320 320 320 319 318 317 315 313 313 313 314 314 313 311 310 308 306 305 306 309 310 310 310 310 311 312 313 314 315 315 314 312 309 306 303 301 299 299 298 298 297 297 295 293 290
303 305 307 306 306 307 307 308 309 309 310 310 310 310 311 312 315 316 318 318 319 319 320 320 319 317 315 314 314 312 312 311 312 313 314 313 312 311 310 309 305 305 307 309 311 311 312 313 314 314 314 316 316 315 313 310 305 301 298 297 297 298 299 299 298 295 293 289 287
302 304 305 305 305 305 306 307 309 310 311 311 311 312 313 314 315 316 316 317 318 319 319 318 316 314 312 311 310 309 309 310 311 312 312 312 312 311 310 308 305 305 307 310 312 314 315 315 315 315 315 316 316 313 310 306 301 297 296 297 298 300 301 300 298 295 292 288 287
297 301 302 303 303 304 305 307 309 310 311 312 312 314 315 315 315 314 314 315 318 319 319 319 317 316 314 314 312 311 310 311 311 312 312 312 312 312 310 308 306 307 309 312 314 316 317 317 316 316 316 316 314 310 307 303 300 299 300 301 303 304 304 303 301 300 297 295 294
294 297 298 300 301 302 304 307 309 311 312 312 312 313 314 314 314 313 314 317 319 320 320 320 319 317 316 316 313 312 311 310 311 311 311 311 312 311 310 308 307 308 310 313 316 318 318 317 316 316 316 315 312 309 306 306 306 307 307 308 307 307 308 308 308 308 308 306 302
295 295 296 296 298 300 303 307 309 310 310 310 310 310 311 311 312 313 316 320 322 321 320 318 317 316 315 315 312 311 310 310 310 310 310 310 310 309 309 308 309 309 311 314 316 318 318 317 316 316 317 316 313 311 310 311 312 312 311 309 308 311 315 319 320 318 312 305 300
295 294 293 292 294 298 302 306 307 307 307 307 308 309 310 310 311 314 318 321 320 318 316 315 314 313 313 313 312 312 312 311 310 310 309 309 309 309 310 311 311 311 312 313 315 316 316 316 316 317 318 317 316 315 314 314 312 310 309 309 312 318 324 329 326 317 305 297 296
293 292 289 287 290 295 300 303 304 304 304 304 305 307 308 309 311 315 317 319 317 315 312 311 311 311 312 314 313 312 311 311 311 310 310 310 310 311 313 313 312 311 310 311 313 314 316 316 317 319 319 318 319 318 314 311 310 312 315 317 320 325 329 331 322 312 302 296 297
289 288 286 287 290 294 298 301 301 301 301 301 300 302 304 308 311 314 315 315 315 314 312 310 311 312 312 313 312 311 310 310 311 311 312 313 313 314 315 314 311 309 308 308 311 314 316 318 319 320 320 320 320 318 314 309 313 318 321 322 323 324 323 321 316 309 305 303 302